Погода в Полозаозерье

Россия / Тюменская область     55°53′16″N   68°17′28″E
темп.,
°C
ветер,
м/с
пор.,
м/с
влажн.,
%
обл.,
%
осадки,
мм/ч
давл.,
гПа
погр.,
м
3 марта, ср
ср323:00−17ююз5119661 0.0 1010241
02:00−17ююз5119689 0.0 1008251
05:00−17ююз6129494 0.0 1007327
08:00−16ююз61294100 0.1 1005365
11:00−12ююз81393100 0.6 1005641
14:00−8юз81390100 0.4 1004754
17:00−6юз71391100 0.6 1004785
20:00−5юз61294100 0.2 1003597
4 марта, чт
чт423:00−5ююз51095100 0.4 1003407
02:00−4ююз51195100 0.4 1002441
05:00−4ююз61195100 0.9 1001528
08:00−4ююз61195100 0.3 1000497
11:00−2ююз6996100 0.8 998596
14:00−1юз6998100 0.9 996666
17:00−1юз5897100 1.8 996523
20:00−4з51192100 0.9 997428
5 марта, пт
пт523:00−7зюз6139398 1.1 1000439
02:00−11зюз5119145 0.0 1001241
05:00−12ююз6139336 0.0 1002320
08:00−9юз81493100 0.6 1001757
11:00−4юз91593100 1.3 1001983
14:00−2зюз91387100 0.3 10021262
17:00−2зюз61285100 0.3 1004808
20:00−3юз51197100 0.1 1004433
6 марта, сб
сб623:00−1ююз71296100 0.9 1003734
02:00−1юз71396100 1.2 1001752
05:00−1юз71397100 2.1 1000683
08:00−1ююз51098100 2.4 998652
11:00−2сз91395100 6.1 999868
14:00−4з8118698 0.4 1004951
17:00−9з7138678 0.4 1008573
20:00−12зюз6129268 0.0 1010337
7 марта, вс
вс723:00−16зюз479675 0.0 1011120
02:00−16юз3396100 0.0 101154
05:00−14ююз2396100 0.1 100985
08:00−13в1296100 0.6 100790
11:00−10ссв3392100 0.9 1005306
14:00−9с4593100 0.6 1005471
17:00−9ссз3592100 0.8 1007330
20:00−15зсз349486 0.0 101039